QPF
0.04 0.03 0.02 0.02 0.03 0.03 0.03 0.02 0.03 0.02 0.02 0.02 0.02 0.02 0.02 0.04 0.06 0.06 0.06 0.05 0.04 0.05 0.04 0.03 0.02 0.03 0.03 0.02 0.02 0.03 0.04 0.05 0.06 0.07 0.05 0.04 0.04 0.04 0.04 0.03 0.03 0.05 0.05
0.02 0.03 0.04 0.05 0.02 0.02 0.01 0.02 0.03 0.02 0.02 0.02 0.01 0.01 0.01 0.03 0.05 0.04 0.04 0.04 0.04 0.03 0.02 0.02 0.03 0.03 0.04 0.04 0.03 0.03 0.04 0.04 0.05 0.05 0.04 0.04 0.04 0.04 0.04 0.04 0.04 0.04 0.04
0.01 0.03 0.04 0.04 0.02 0.02 0.02 0.02 0.02 0.02 0.02 0.02 0.02 0.02 0.01 0.01 0.03 0.04 0.04 0.05 0.05 0.04 0.04 0.04 0.04 0.04 0.04 0.03 0.02 0.02 0.03 0.03 0.04 0.06 0.05 0.04 0.03 0.03 0.02 0.02 0.03 0.05 0.04
0.01 0.02 0.04 0.03 0.01 0.01 0.02 0.02 0.02 0.03 0.03 0.02 0.02 0.02 0.01 0.02 0.02 0.03 0.03 0.04 0.06 0.06 0.05 0.06 0.06 0.03 0.03 0.03 0.03 0.03 0.03 0.03 0.04 0.06 0.07 0.05 0.04 0.03 0.02 0.02 0.03 0.03 0.04
0.02 0.02 0.03 0.03 0.02 0.02 0.01 0.01 0.03 0.03 0.03 0.04 0.02 0.02 0.02 0.02 0.02 0.02 0.02 0.02 0.03 0.05 0.03 0.02 0.04 0.05 0.03 0.03 0.05 0.05 0.04 0.04 0.05 0.05 0.07 0.08 0.05 0.03 0.02 0.03 0.03 0.02 0.03
0.01 0.01 0.01 0.02 0.02 0.02 0.02 0.02 0.03 0.03 0.03 0.04 0.02 0.01 0.02 0.02 0.03 0.03 0.03 0.02 0.03 0.03 0.02 0.02 0.03 0.04 0.04 0.03 0.04 0.05 0.06 0.06 0.06 0.07 0.08 0.08 0.05 0.04 0.03 0.04 0.04 0.03 0.03
0.01 0.02 0.02 0.02 0.02 0.02 0.02 0.02 0.02 0.02 0.02 0.02 0.02 0.02 0.01 0.01 0.02 0.02 0.02 0.03 0.03 0.03 0.02 0.02 0.03 0.04 0.05 0.04 0.04 0.06 0.08 0.08 0.08 0.09 0.08 0.05 0.03 0.03 0.03 0.03 0.03 0.03 0.03
0.01 0.02 0.03 0.04 0.04 0.04 0.03 0.03 0.02 0.03 0.02 0.02 0.03 0.03 0.03 0.02 0.01 0.01 0.02 0.02 0.03 0.03 0.02 0.02 0.03 0.04 0.04 0.05 0.04 0.06 0.08 0.09 0.11 0.10 0.07 0.04 0.03 0.03 0.04 0.04 0.03 0.03 0.02
0.01 0.02 0.02 0.02 0.03 0.04 0.04 0.04 0.03 0.04 0.03 0.02 0.02 0.04 0.05 0.04 0.03 0.02 0.03 0.03 0.03 0.03 0.02 0.02 0.03 0.03 0.03 0.03 0.04 0.06 0.08 0.09 0.10 0.08 0.06 0.05 0.03 0.03 0.04 0.04 0.03 0.03 0.02
0.02 0.02 0.02 0.02 0.02 0.03 0.03 0.02 0.02 0.03 0.04 0.04 0.02 0.02 0.03 0.03 0.04 0.04 0.04 0.04 0.03 0.02 0.02 0.02 0.02 0.03 0.03 0.04 0.04 0.05 0.05 0.05 0.06 0.06 0.05 0.05 0.04 0.03 0.03 0.03 0.04 0.03 0.03
0.01 0.02 0.03 0.02 0.01 0.02 0.02 0.03 0.02 0.03 0.03 0.03 0.03 0.03 0.02 0.03 0.03 0.04 0.05 0.04 0.03 0.02 0.01 0.01 0.02 0.03 0.04 0.04 0.04 0.04 0.04 0.04 0.04 0.05 0.06 0.06 0.05 0.05 0.04 0.05 0.06 0.06 0.05
0.01 0.02 0.02 0.02 0.01 0.01 0.01 0.02 0.03 0.03 0.03 0.03 0.03 0.03 0.03 0.03 0.03 0.03 0.04 0.04 0.04 0.03 0.02 0.01 0.01 0.02 0.02 0.03 0.03 0.03 0.03 0.04 0.05 0.06 0.07 0.07 0.05 0.04 0.05 0.05 0.05 0.07 0.08
0.01 0.01 0.02 0.02 0.01 0.01 0.01 0.01 0.02 0.02 0.03 0.03 0.03 0.03 0.03 0.03 0.03 0.03 0.03 0.04 0.04 0.04 0.03 0.03 0.02 0.02 0.01 0.02 0.02 0.02 0.02 0.03 0.03 0.02 0.03 0.03 0.03 0.02 0.03 0.05 0.05 0.06 0.08
0.01 0.01 0.01 0.01 0.01 0.01 0.00 0.01 0.01 0.02 0.02 0.02 0.03 0.04 0.04 0.04 0.04 0.03 0.03 0.04 0.03 0.04 0.04 0.03 0.03 0.02 0.02 0.02 0.01 0.01 0.02 0.01 0.01 0.01 0.01 0.02 0.02 0.02 0.02 0.03 0.05 0.06 0.07
0.03 0.02 0.02 0.02 0.01 0.01 0.01 0.01 0.01 0.01 0.01 0.02 0.02 0.03 0.04 0.04 0.04 0.02 0.02 0.04 0.05 0.05 0.04 0.03 0.03 0.02 0.02 0.01 0.01 0.01 0.01 0.00 0.00 0.00 0.00 0.02 0.02 0.01 0.01 0.02 0.04 0.04 0.06
0.04 0.04 0.04 0.03 0.02 0.01 0.02 0.02 0.01 0.01 0.01 0.02 0.02 0.02 0.02 0.03 0.03 0.02 0.03 0.04 0.05 0.05 0.04 0.03 0.02 0.01 0.01 0.01 0.00 0.01 0.01 0.00 0.00 0.00 0.00 0.02 0.04 0.02 0.01 0.03 0.02 0.02 0.04
0.03 0.04 0.06 0.05 0.03 0.02 0.02 0.02 0.01 0.01 0.01 0.01 0.01 0.01 0.02 0.02 0.02 0.02 0.02 0.03 0.04 0.04 0.04 0.02 0.02 0.01 0.01 0.01 0.01 0.01 0.00 0.00 0.01 0.01 0.00 0.01 0.05 0.05 0.02 0.03 0.01 0.01 0.02
0.02 0.02 0.04 0.05 0.05 0.04 0.03 0.03 0.02 0.02 0.03 0.03 0.03 0.03 0.04 0.03 0.02 0.02 0.02 0.02 0.03 0.03 0.03 0.02 0.02 0.02 0.01 0.02 0.01 0.01 0.00 0.00 0.00 0.01 0.01 0.01 0.03 0.09 0.04 0.02 0.01 0.01 0.01
0.02 0.01 0.01 0.01 0.02 0.02 0.02 0.03 0.02 0.02 0.03 0.03 0.03 0.03 0.03 0.03 0.03 0.02 0.03 0.02 0.02 0.01 0.01 0.02 0.02 0.02 0.02 0.02 0.03 0.02 0.01 0.00 0.00 0.01 0.01 0.00 0.01 0.07 0.10 0.04 0.02 0.01 0.01
0.03 0.02 0.02 0.02 0.02 0.02 0.02 0.01 0.02 0.02 0.02 0.02 0.02 0.03 0.04 0.04 0.03 0.02 0.03 0.03 0.02 0.02 0.02 0.03 0.02 0.02 0.02 0.03 0.03 0.03 0.03 0.02 0.01 0.01 0.00 0.00 0.00 0.02 0.09 0.08 0.05 0.03 0.02
0.03 0.02 0.02 0.02 0.02 0.02 0.03 0.02 0.01 0.01 0.02 0.02 0.02 0.03 0.03 0.04 0.05 0.04 0.03 0.03 0.02 0.02 0.03 0.04 0.04 0.04 0.04 0.05 0.04 0.03 0.03 0.03 0.03 0.02 0.01 0.01 0.01 0.01 0.04 0.07 0.06 0.06 0.05
0.03 0.03 0.02 0.01 0.02 0.02 0.02 0.02 0.02 0.01 0.02 0.02 0.02 0.03 0.03 0.03 0.03 0.05 0.05 0.04 0.03 0.04 0.03 0.03 0.04 0.04 0.04 0.04 0.04 0.03 0.03 0.04 0.04 0.04 0.03 0.02 0.02 0.02 0.02 0.04 0.05 0.06 0.06
0.03 0.03 0.04 0.03 0.01 0.01 0.02 0.02 0.01 0.01 0.01 0.01 0.02 0.02 0.03 0.02 0.03 0.03 0.05 0.06 0.05 0.05 0.05 0.03 0.03 0.03 0.03 0.03 0.03 0.03 0.04 0.04 0.03 0.02 0.03 0.03 0.03 0.03 0.03 0.03 0.04 0.05 0.06
0.03 0.02 0.02 0.01 0.02 0.02 0.03 0.02 0.01 0.01 0.01 0.01 0.02 0.02 0.02 0.03 0.03 0.03 0.03 0.03 0.04 0.04 0.04 0.03 0.03 0.03 0.03 0.03 0.03 0.03 0.04 0.04 0.04 0.03 0.02 0.03 0.02 0.02 0.01 0.02 0.03 0.04 0.05
0.03 0.02 0.02 0.02 0.02 0.02 0.02 0.02 0.01 0.01 0.00 0.01 0.01 0.02 0.02 0.02 0.04 0.04 0.04 0.03 0.02 0.02 0.02 0.03 0.04 0.04 0.05 0.03 0.03 0.03 0.02 0.03 0.04 0.03 0.02 0.03 0.01 0.02 0.02 0.03 0.03 0.04 0.05
0.03 0.03 0.02 0.02 0.01 0.01 0.02 0.02 0.01 0.00 0.00 0.01 0.01 0.02 0.03 0.03 0.04 0.03 0.04 0.04 0.03 0.02 0.01 0.02 0.02 0.02 0.03 0.03 0.03 0.02 0.02 0.02 0.03 0.03 0.02 0.02 0.01 0.02 0.04 0.03 0.03 0.04 0.04
MSLP
1016.51 1016.69 1016.78 1016.80 1016.77 1016.75 1016.79 1016.90 1017.09 1017.36 1017.67 1017.98 1018.27 1018.52 1018.75 1018.95 1019.15 1019.38 1019.63 1019.90 1020.16 1020.40 1020.59 1020.71 1020.76 1020.75 1020.70 1020.66 1020.62 1020.62 1020.64 1020.68 1020.71 1020.72 1020.71 1020.66 1020.58 1020.50 1020.40 1020.31 1020.22 1020.13 1020.02
1016.74 1016.98 1017.12 1017.19 1017.22 1017.24 1017.29 1017.41 1017.61 1017.88 1018.19 1018.51 1018.82 1019.10 1019.36 1019.59 1019.82 1020.06 1020.32 1020.60 1020.87 1021.10 1021.29 1021.40 1021.44 1021.43 1021.37 1021.30 1021.24 1021.21 1021.22 1021.25 1021.30 1021.33 1021.34 1021.32 1021.25 1021.16 1021.04 1020.91 1020.77 1020.64 1020.50
1016.89 1017.18 1017.39 1017.54 1017.64 1017.72 1017.83 1017.98 1018.19 1018.46 1018.77 1019.10 1019.42 1019.72 1019.99 1020.23 1020.47 1020.71 1020.96 1021.21 1021.47 1021.69 1021.87 1021.98 1022.02 1022.00 1021.95 1021.88 1021.81 1021.78 1021.78 1021.82 1021.88 1021.93 1021.97 1021.97 1021.92 1021.83 1021.70 1021.54 1021.36 1021.19 1021.02
1017.01 1017.35 1017.64 1017.87 1018.06 1018.22 1018.39 1018.58 1018.82 1019.10 1019.41 1019.73 1020.05 1020.34 1020.60 1020.84 1021.06 1021.27 1021.49 1021.71 1021.92 1022.12 1022.28 1022.40 1022.45 1022.45 1022.41 1022.36 1022.31 1022.28 1022.29 1022.34 1022.41 1022.48 1022.54 1022.56 1022.54 1022.46 1022.33 1022.16 1021.97 1021.77 1021.58
1017.16 1017.53 1017.88 1018.20 1018.48 1018.72 1018.95 1019.19 1019.44 1019.73 1020.03 1020.34 1020.64 1020.92 1021.16 1021.37 1021.56 1021.72 1021.89 1022.06 1022.23 1022.40 1022.54 1022.66 1022.73 1022.76 1022.76 1022.74 1022.71 1022.70 1022.73 1022.78 1022.85 1022.94 1023.02 1023.06 1023.06 1023.00 1022.89 1022.73 1022.54 1022.34 1022.14
1017.36 1017.75 1018.15 1018.53 1018.88 1019.19 1019.48 1019.74 1020.01 1020.29 1020.57 1020.86 1021.14 1021.39 1021.61 1021.79 1021.93 1022.06 1022.17 1022.29 1022.41 1022.54 1022.67 1022.79 1022.89 1022.96 1023.00 1023.02 1023.03 1023.04 1023.08 1023.13 1023.21 1023.29 1023.37 1023.43 1023.45 1023.42 1023.34 1023.20 1023.03 1022.84 1022.65
1017.63 1018.01 1018.44 1018.86 1019.25 1019.60 1019.91 1020.19 1020.45 1020.71 1020.97 1021.24 1021.49 1021.72 1021.92 1022.08 1022.20 1022.28 1022.35 1022.42 1022.50 1022.60 1022.72 1022.84 1022.96 1023.07 1023.16 1023.23 1023.28 1023.32 1023.36 1023.41 1023.48 1023.55 1023.62 1023.67 1023.70 1023.69 1023.64 1023.55 1023.41 1023.25 1023.08
1017.94 1018.31 1018.73 1019.15 1019.56 1019.91 1020.22 1020.49 1020.73 1020.97 1021.21 1021.45 1021.69 1021.91 1022.11 1022.26 1022.36 1022.43 1022.47 1022.51 1022.56 1022.64 1022.74 1022.87 1023.02 1023.16 1023.30 1023.41 1023.50 1023.56 1023.61 1023.65 1023.69 1023.73 1023.78 1023.82 1023.84 1023.84 1023.82 1023.76 1023.67 1023.55 1023.42
1018.28 1018.62 1019.01 1019.41 1019.78 1020.12 1020.40 1020.64 1020.85 1021.06 1021.28 1021.51 1021.75 1021.98 1022.19 1022.36 1022.48 1022.55 1022.58 1022.60 1022.64 1022.69 1022.79 1022.92 1023.09 1023.27 1023.44 1023.60 1023.72 1023.81 1023.86 1023.88 1023.89 1023.90 1023.90 1023.90 1023.90 1023.90 1023.88 1023.85 1023.80 1023.73 1023.65
1018.61 1018.91 1019.25 1019.61 1019.94 1020.23 1020.47 1020.67 1020.84 1021.02 1021.23 1021.46 1021.71 1021.97 1022.21 1022.42 1022.57 1022.67 1022.71 1022.74 1022.76 1022.81 1022.90 1023.03 1023.21 1023.41 1023.62 1023.81 1023.97 1024.07 1024.13 1024.14 1024.12 1024.08 1024.03 1023.98 1023.94 1023.91 1023.88 1023.86 1023.84 1023.81 1023.78
1018.88 1019.15 1019.45 1019.76 1020.04 1020.28 1020.47 1020.63 1020.77 1020.93 1021.13 1021.37 1021.65 1021.94 1022.23 1022.48 1022.68 1022.81 1022.88 1022.91 1022.94 1022.98 1023.06 1023.19 1023.38 1023.60 1023.83 1024.05 1024.24 1024.36 1024.43 1024.44 1024.39 1024.31 1024.21 1024.11 1024.01 1023.93 1023.87 1023.83 1023.81 1023.81 1023.83
1019.06 1019.32 1019.60 1019.87 1020.11 1020.30 1020.46 1020.58 1020.71 1020.85 1021.05 1021.31 1021.61 1021.94 1022.27 1022.57 1022.81 1022.98 1023.08 1023.13 1023.15 1023.19 1023.26 1023.39 1023.58 1023.81 1024.06 1024.30 1024.51 1024.67 1024.75 1024.76 1024.71 1024.60 1024.45 1024.29 1024.14 1024.00 1023.89 1023.81 1023.78 1023.78 1023.81
1019.14 1019.40 1019.67 1019.92 1020.15 1020.32 1020.46 1020.57 1020.69 1020.84 1021.04 1021.31 1021.64 1022.00 1022.36 1022.69 1022.97 1023.16 1023.29 1023.35 1023.38 1023.42 1023.49 1023.61 1023.79 1024.02 1024.28 1024.55 1024.78 1024.97 1025.07 1025.10 1025.04 1024.92 1024.75 1024.55 1024.33 1024.14 1023.97 1023.84 1023.77 1023.76 1023.79
1019.11 1019.40 1019.68 1019.94 1020.16 1020.35 1020.50 1020.62 1020.75 1020.91 1021.13 1021.41 1021.74 1022.12 1022.49 1022.84 1023.14 1023.35 1023.49 1023.57 1023.61 1023.65 1023.71 1023.83 1024.00 1024.23 1024.50 1024.78 1025.03 1025.24 1025.37 1025.42 1025.38 1025.26 1025.08 1024.85 1024.60 1024.35 1024.13 1023.96 1023.84 1023.79 1023.80
1018.99 1019.30 1019.61 1019.90 1020.16 1020.38 1020.56 1020.73 1020.89 1021.07 1021.30 1021.59 1021.92 1022.29 1022.66 1023.01 1023.30 1023.53 1023.68 1023.77 1023.82 1023.87 1023.94 1024.05 1024.22 1024.45 1024.71 1024.99 1025.26 1025.48 1025.64 1025.71 1025.69 1025.59 1025.41 1025.18 1024.91 1024.64 1024.38 1024.16 1024.00 1023.92 1023.90
1018.78 1019.13 1019.48 1019.82 1020.13 1020.41 1020.65 1020.87 1021.08 1021.29 1021.54 1021.82 1022.14 1022.49 1022.84 1023.17 1023.46 1023.68 1023.85 1023.96 1024.03 1024.09 1024.18 1024.30 1024.47 1024.68 1024.94 1025.21 1025.47 1025.70 1025.87 1025.96 1025.96 1025.88 1025.73 1025.51 1025.26 1024.98 1024.71 1024.48 1024.29 1024.17 1024.13
1018.53 1018.91 1019.30 1019.69 1020.07 1020.42 1020.73 1021.01 1021.28 1021.53 1021.80 1022.08 1022.38 1022.70 1023.03 1023.33 1023.60 1023.83 1024.01 1024.14 1024.25 1024.35 1024.46 1024.59 1024.76 1024.98 1025.21 1025.46 1025.70 1025.91 1026.07 1026.17 1026.19 1026.14 1026.01 1025.83 1025.61 1025.36 1025.12 1024.89 1024.70 1024.57 1024.51
1018.28 1018.68 1019.11 1019.55 1019.99 1020.40 1020.79 1021.14 1021.46 1021.76 1022.04 1022.32 1022.61 1022.91 1023.20 1023.48 1023.75 1023.98 1024.18 1024.36 1024.50 1024.65 1024.79 1024.95 1025.13 1025.33 1025.55 1025.76 1025.97 1026.14 1026.28 1026.36 1026.39 1026.35 1026.27 1026.13 1025.96 1025.76 1025.56 1025.37 1025.22 1025.10 1025.04
1018.06 1018.48 1018.93 1019.41 1019.90 1020.37 1020.82 1021.24 1021.61 1021.94 1022.25 1022.54 1022.82 1023.09 1023.37 1023.64 1023.90 1024.15 1024.38 1024.60 1024.80 1025.00 1025.18 1025.37 1025.57 1025.76 1025.95 1026.12 1026.28 1026.41 1026.50 1026.56 1026.58 1026.56 1026.50 1026.41 1026.29 1026.16 1026.03 1025.90 1025.79 1025.71 1025.66
1017.91 1018.32 1018.79 1019.29 1019.81 1020.33 1020.83 1021.29 1021.71 1022.08 1022.41 1022.71 1022.99 1023.26 1023.53 1023.80 1024.07 1024.34 1024.61 1024.88 1025.13 1025.38 1025.61 1025.83 1026.04 1026.22 1026.39 1026.52 1026.63 1026.71 1026.76 1026.78 1026.78 1026.76 1026.72 1026.67 1026.62 1026.55 1026.49 1026.43 1026.38 1026.35 1026.32
1017.82 1018.24 1018.71 1019.22 1019.76 1020.30 1020.82 1021.32 1021.76 1022.16 1022.51 1022.83 1023.12 1023.40 1023.68 1023.96 1024.26 1024.56 1024.86 1025.17 1025.48 1025.77 1026.04 1026.29 1026.50 1026.68 1026.82 1026.93 1026.99 1027.02 1027.03 1027.02 1027.00 1026.98 1026.96 1026.94 1026.93 1026.92 1026.92 1026.93 1026.93 1026.94 1026.95
1017.77 1018.20 1018.67 1019.18 1019.72 1020.26 1020.80 1021.31 1021.77 1022.20 1022.57 1022.91 1023.23 1023.53 1023.83 1024.13 1024.45 1024.78 1025.12 1025.46 1025.80 1026.12 1026.42 1026.69 1026.91 1027.09 1027.22 1027.30 1027.33 1027.34 1027.31 1027.28 1027.24 1027.22 1027.20 1027.21 1027.23 1027.27 1027.31 1027.36 1027.41 1027.45 1027.48
1017.74 1018.18 1018.65 1019.16 1019.68 1020.22 1020.75 1021.26 1021.74 1022.18 1022.59 1022.96 1023.30 1023.64 1023.97 1024.30 1024.64 1025.00 1025.36 1025.72 1026.07 1026.41 1026.72 1026.99 1027.22 1027.40 1027.52 1027.59 1027.62 1027.61 1027.58 1027.55 1027.51 1027.48 1027.48 1027.49 1027.53 1027.59 1027.65 1027.72 1027.79 1027.84 1027.88
1017.65 1018.12 1018.61 1019.11 1019.62 1020.14 1020.66 1021.17 1021.66 1022.12 1022.55 1022.95 1023.34 1023.71 1024.08 1024.45 1024.82 1025.19 1025.56 1025.93 1026.28 1026.61 1026.92 1027.19 1027.41 1027.59 1027.72 1027.80 1027.84 1027.84 1027.83 1027.80 1027.77 1027.76 1027.76 1027.79 1027.83 1027.89 1027.95 1028.02 1028.07 1028.12 1028.14
1017.48 1017.98 1018.48 1018.99 1019.49 1020.00 1020.51 1021.01 1021.51 1021.99 1022.45 1022.90 1023.33 1023.76 1024.17 1024.58 1024.97 1025.36 1025.73 1026.09 1026.43 1026.74 1027.02 1027.28 1027.49 1027.67 1027.81 1027.91 1027.97 1028.01 1028.03 1028.04 1028.04 1028.05 1028.07 1028.09 1028.13 1028.18 1028.22 1028.26 1028.29 1028.30 1028.30
1017.16 1017.71 1018.24 1018.76 1019.26 1019.77 1020.27 1020.78 1021.28 1021.79 1022.29 1022.79 1023.28 1023.76 1024.22 1024.67 1025.10 1025.50 1025.87 1026.21 1026.53 1026.81 1027.07 1027.30 1027.51 1027.68 1027.83 1027.96 1028.06 1028.14 1028.20 1028.25 1028.29 1028.33 1028.36 1028.40 1028.43 1028.46 1028.48 1028.49 1028.48 1028.45 1028.41
Thickness
5727 5726 5725 5724 5723 5722 5722 5721 5720 5720 5720 5720 5720 5719 5718 5717 5717 5716 5715 5715 5716 5717 5717 5717 5717 5718 5718 5719 5720 5721 5721 5721 5722 5722 5722 5722 5722 5722 5723 5723 5723 5724 5724
5725 5723 5721 5720 5719 5718 5718 5717 5716 5714 5714 5714 5713 5714 5713 5713 5712 5711 5710 5710 5711 5711 5712 5713 5713 5714 5714 5715 5716 5716 5717 5717 5717 5718 5718 5718 5718 5718 5718 5718 5718 5719 5719
5722 5720 5718 5716 5715 5714 5714 5713 5711 5710 5709 5708 5708 5708 5709 5708 5708 5707 5707 5706 5706 5706 5707 5708 5708 5709 5710 5711 5711 5712 5713 5713 5713 5713 5713 5714 5713 5713 5714 5714 5714 5714 5714
5719 5716 5714 5712 5711 5710 5709 5707 5706 5704 5703 5702 5702 5703 5704 5704 5705 5704 5704 5703 5702 5702 5702 5703 5704 5705 5706 5707 5707 5708 5708 5708 5709 5709 5709 5709 5709 5709 5709 5709 5709 5709 5710
5715 5713 5711 5709 5708 5706 5704 5704 5701 5699 5697 5696 5697 5698 5699 5699 5700 5701 5701 5700 5699 5699 5699 5698 5699 5700 5702 5703 5704 5704 5705 5704 5705 5705 5705 5705 5704 5704 5704 5705 5705 5705 5705
5711 5709 5707 5706 5704 5701 5699 5698 5697 5696 5694 5694 5694 5694 5694 5695 5696 5697 5697 5697 5696 5696 5696 5695 5695 5696 5697 5698 5699 5700 5700 5701 5701 5701 5701 5700 5700 5700 5700 5700 5700 5700 5700
5707 5706 5704 5702 5700 5697 5696 5695 5693 5691 5690 5691 5688 5686 5688 5691 5691 5692 5693 5692 5693 5693 5693 5693 5693 5693 5693 5694 5694 5695 5696 5696 5696 5696 5696 5696 5696 5696 5696 5696 5695 5695 5695
5704 5702 5701 5698 5696 5694 5692 5691 5690 5688 5687 5689 5686 5681 5677 5679 5685 5688 5688 5688 5689 5690 5690 5690 5690 5690 5689 5689 5689 5690 5691 5692 5692 5692 5691 5691 5691 5691 5691 5691 5691 5690 5690
5700 5699 5698 5696 5694 5692 5689 5689 5688 5685 5682 5685 5686 5681 5675 5671 5674 5680 5683 5684 5685 5685 5686 5687 5687 5687 5686 5685 5685 5686 5687 5687 5687 5687 5687 5687 5687 5687 5686 5686 5686 5685 5685
5697 5696 5695 5694 5692 5691 5688 5687 5687 5685 5682 5680 5682 5684 5683 5680 5673 5670 5675 5679 5681 5681 5682 5683 5683 5682 5682 5681 5681 5681 5682 5682 5682 5683 5683 5683 5683 5683 5682 5682 5681 5681 5680
5694 5693 5692 5691 5690 5688 5687 5686 5685 5684 5682 5679 5678 5679 5679 5679 5679 5671 5667 5671 5674 5677 5678 5678 5679 5678 5678 5677 5677 5676 5677 5677 5678 5678 5679 5679 5679 5678 5678 5677 5677 5676 5676
5690 5690 5689 5688 5687 5686 5685 5683 5682 5681 5680 5680 5679 5678 5676 5674 5673 5672 5668 5667 5668 5670 5674 5675 5675 5674 5674 5673 5673 5672 5673 5673 5673 5674 5674 5674 5674 5674 5673 5673 5673 5672 5672
5685 5685 5685 5684 5683 5683 5682 5681 5680 5679 5679 5678 5676 5676 5676 5676 5676 5674 5669 5666 5665 5666 5668 5670 5671 5672 5671 5670 5669 5668 5668 5668 5668 5668 5669 5669 5669 5669 5669 5669 5669 5669 5668
5682 5683 5682 5681 5680 5680 5679 5678 5677 5676 5676 5676 5675 5674 5674 5674 5675 5672 5669 5665 5660 5661 5662 5663 5667 5668 5668 5667 5666 5665 5664 5664 5664 5664 5664 5664 5664 5664 5664 5664 5664 5664 5664
5680 5679 5678 5677 5677 5676 5675 5674 5672 5672 5673 5672 5672 5671 5671 5671 5672 5671 5669 5667 5660 5655 5655 5659 5660 5663 5664 5663 5662 5661 5660 5660 5660 5660 5660 5659 5659 5660 5660 5660 5660 5660 5660
5676 5675 5674 5674 5673 5672 5670 5669 5668 5668 5668 5668 5668 5667 5667 5667 5667 5667 5667 5665 5664 5659 5654 5656 5658 5660 5660 5660 5659 5658 5657 5656 5656 5656 5656 5655 5655 5655 5655 5655 5655 5656 5656
5671 5671 5670 5669 5668 5667 5666 5665 5663 5663 5663 5663 5664 5663 5662 5663 5662 5662 5661 5661 5660 5659 5653 5653 5656 5657 5656 5656 5654 5654 5653 5653 5652 5652 5652 5651 5651 5651 5651 5650 5650 5650 5651
5666 5666 5665 5664 5663 5662 5661 5660 5659 5659 5658 5658 5659 5658 5658 5658 5657 5657 5656 5656 5656 5656 5652 5648 5649 5651 5651 5651 5650 5650 5650 5650 5649 5649 5648 5648 5647 5647 5646 5645 5644 5644 5643
5660 5660 5660 5659 5658 5657 5656 5655 5654 5654 5654 5654 5654 5653 5653 5653 5652 5652 5652 5652 5651 5652 5650 5647 5645 5646 5646 5647 5646 5646 5646 5646 5646 5645 5644 5644 5643 5642 5642 5641 5640 5639 5638
5655 5654 5654 5654 5653 5651 5650 5650 5649 5649 5649 5649 5650 5650 5650 5649 5648 5648 5648 5647 5647 5646 5645 5643 5642 5641 5641 5642 5641 5639 5638 5639 5640 5641 5640 5640 5639 5638 5637 5636 5635 5634 5633
5649 5648 5648 5647 5647 5646 5645 5644 5644 5644 5644 5644 5644 5644 5644 5644 5644 5644 5644 5642 5642 5640 5639 5637 5636 5635 5635 5634 5633 5634 5633 5634 5635 5636 5635 5635 5635 5634 5633 5632 5631 5630 5628
5642 5641 5641 5641 5640 5639 5639 5639 5637 5637 5638 5637 5637 5637 5638 5638 5638 5639 5639 5638 5638 5635 5633 5632 5630 5629 5630 5630 5629 5630 5628 5627 5626 5630 5629 5629 5630 5629 5629 5628 5627 5626 5624
5635 5635 5634 5634 5633 5632 5632 5632 5631 5630 5630 5629 5630 5630 5631 5632 5631 5631 5632 5632 5631 5631 5631 5629 5626 5626 5625 5626 5625 5625 5624 5623 5622 5625 5623 5622 5624 5624 5624 5624 5623 5622 5620
5628 5627 5627 5627 5627 5626 5625 5625 5624 5624 5623 5623 5623 5623 5623 5623 5624 5624 5625 5624 5624 5624 5624 5624 5623 5623 5623 5623 5622 5620 5619 5618 5619 5619 5619 5615 5617 5618 5620 5620 5619 5617 5615
5622 5621 5622 5622 5620 5619 5618 5618 5617 5615 5615 5615 5616 5616 5616 5616 5617 5618 5617 5616 5616 5616 5617 5618 5618 5618 5618 5618 5617 5614 5612 5610 5609 5610 5612 5609 5610 5610 5611 5612 5613 5612 5610
5615 5616 5616 5616 5614 5612 5611 5610 5610 5608 5607 5607 5608 5609 5609 5609 5610 5610 5609 5608 5607 5607 5608 5609 5609 5610 5610 5610 5610 5608 5607 5604 5602 5601 5604 5602 5601 5601 5601 5604 5605 5604 5602